Volver al catálogo

SL-24 R/B

ActivoPO
NORAD 31123·ROCKET BODY·🇷🇺 Russia

Lanzado Apr 17, 2007 desde Baikonur Cosmodrome

Loading…

Próximos Pases (próximas 24 horas)

TLE

ActualizadoSource: Space-Track

Época: Sep 14, 2026, 11:56 UTC

1 31123U 07012G   26257.49755299  .00000063  00000-0  34656-4 0  9999
2 31123  98.0069  93.2083 0310077 144.9762 247.2049 14.13540106   799

Sigue SL-24 R/B en tiempo real con AllMySat

Download on the App Store